Weather History for Truckee-Tahoe, CA

Change the Weather History Date:

Saturday, January 26, 2013

  Actual Average Record
Temperature  
Mean Temperature 34 °F -  
Max Temperature 41 °F 41 °F 57 °F (1982)
Min Temperature 26 °F 16 °F -5 °F (1950)
Degree Days  
Heating Degree Days 32    
Moisture  
Dew Point 26 °F    
Average Humidity 78    
Maximum Humidity 100    
Minimum Humidity 52    
Precipitation  
Precipitation 0.00 in - - ()
Snow  
Snow 0.00 in - - ()
Snow Depth 13.00 in    
Sea Level Pressure  
Sea Level Pressure 29.95 in    
Wind  
Wind Speed 5 mph (SW)    
Max Wind Speed 17 mph    
Max Gust Speed 25 mph    
Visibility 7 miles    
Events Fog    
Averages and records for this station are not official NWS values.
T = Trace of Precipitation, MM = Missing Value Source: NWS Daily Summary

Daily Weather History Graph

Daily Weather History Graph

Search for Another Location

Airport:

Trip Planner

Search our weather history database for the weather conditions in past years. The results will help you decide how hot, cold, wet, or windy it might be!

Date:

Astronomy

Jan. 26, 2013 Rise Set
Actual Time 7:12 AM PST 5:14 PM PST
Civil Twilight 6:43 AM PST 5:43 PM PST
Nautical Twilight 6:11 AM PST 6:15 PM PST
Astronomical Twilight 5:39 AM PST 6:47 PM PST
Moon 5:14 PM PST (1/26) 6:33 AM PST (1/26)
Length of Visible Light 10h 59m
Length of Day
10h 02m
Full, 100% of the Moon is Illuminated
Jan 26
Full
Jan 26
Full
Feb 3
Last Quarter
Feb 9
New
Feb 17
First Quarter

Hourly Weather History & Observations

Time (PST) Temp. Windchill Dew Point Humidity Pressure Visibility Wind Dir Wind Speed Gust Speed Precip Events Conditions
12:15 AM 32.0 °F 27.5 °F 32.0 °F 100% 30.08 in 0.2 mi WNW 4.6 mph - N/A Fog Fog
12:35 AM 32.0 °F 28.7 °F 32.0 °F 100% 30.08 in 0.2 mi SE 3.5 mph - N/A Fog Light Freezing Fog
12:55 AM 32.0 °F - 32.0 °F 100% 30.07 in 0.2 mi Calm Calm - N/A Fog Light Freezing Fog
1:15 AM 32.0 °F - 32.0 °F 100% 30.07 in 0.2 mi Calm Calm - N/A Fog Light Freezing Fog
1:35 AM 32.0 °F 28.7 °F 32.0 °F 100% 30.07 in 0.2 mi ENE 3.5 mph - N/A Fog Light Freezing Fog
1:55 AM 32.0 °F - 30.2 °F 93% 30.06 in 0.2 mi Calm Calm - N/A Fog Light Freezing Fog
2:15 AM 30.2 °F - 30.2 °F 100% 30.06 in 0.2 mi Calm Calm - N/A Fog Light Freezing Fog
2:35 AM 30.2 °F - 30.2 °F 100% 30.05 in 0.2 mi Calm Calm - N/A Fog Light Freezing Fog
2:55 AM 30.2 °F 25.4 °F 30.2 °F 100% 30.04 in 0.2 mi SSE 4.6 mph - N/A Fog Light Freezing Fog
3:15 AM 28.4 °F - 28.4 °F 100% 30.04 in 0.2 mi Calm Calm - N/A Fog Light Freezing Fog
3:35 AM 28.4 °F 24.6 °F 28.4 °F 100% 30.03 in 0.2 mi SW 3.5 mph - N/A Fog Light Freezing Fog
3:55 AM 28.4 °F - 26.6 °F 93% 30.03 in 0.2 mi Calm Calm - N/A Fog Light Freezing Fog
4:15 AM 28.4 °F - 28.4 °F 100% 30.02 in 0.2 mi Calm Calm - N/A Fog Light Freezing Fog
4:35 AM 28.4 °F 24.6 °F 28.4 °F 100% 30.02 in 0.5 mi South 3.5 mph - N/A Fog Light Freezing Fog
4:55 AM 28.4 °F 24.6 °F 28.4 °F 100% 30.01 in 0.8 mi WSW 3.5 mph - N/A   Overcast
5:15 AM 30.2 °F - 30.2 °F 100% 30.01 in 5.0 mi Calm Calm - N/A   Overcast
5:35 AM 28.4 °F 23.3 °F 28.4 °F 100% 30.01 in 10.0 mi SSE 4.6 mph - N/A   Mostly Cloudy
6:55 AM 26.6 °F - 26.6 °F 100% 30.00 in 0.2 mi Calm Calm - N/A Fog Light Freezing Fog
7:50 AM 28.4 °F - 28.4 °F 100% 29.98 in 10.0 mi Calm Calm - N/A   Scattered Clouds
8:45 AM 32.0 °F - 32.0 °F 100% 29.97 in 10.0 mi Calm Calm - N/A   Scattered Clouds
9:45 AM 35.6 °F 28.0 °F 32.0 °F 87% 29.97 in 10.0 mi SW 10.4 mph - N/A   Scattered Clouds
10:45 AM 41.0 °F 32.5 °F 26.6 °F 57% 29.96 in 10.0 mi WSW 17.3 mph 24.2 mph N/A   Scattered Clouds
11:45 AM 39.2 °F 33.0 °F 28.4 °F 65% 29.94 in 10.0 mi South 9.2 mph - N/A   Scattered Clouds
12:55 PM 39.2 °F 32.0 °F 26.6 °F 61% 29.89 in 10.0 mi South 11.5 mph 21.9 mph N/A   Mostly Cloudy
1:50 PM 39.2 °F 32.5 °F 26.6 °F 61% 29.89 in 10.0 mi SSW 10.4 mph 20.7 mph N/A   Scattered Clouds
2:45 PM 39.2 °F 33.6 °F 39.2 °F 100% 29.88 in 10.0 mi South 8.1 mph 16.1 mph N/A   Mostly Cloudy
3:45 PM 39.2 °F 30.8 °F 23.0 °F 52% 29.88 in 10.0 mi South 15.0 mph 19.6 mph N/A   Mostly Cloudy
4:50 PM 37.4 °F 29.8 °F 24.8 °F 60% 29.87 in 10.0 mi WSW 11.5 mph 25.3 mph N/A   Scattered Clouds
4:55 PM 35.6 °F 25.5 °F 24.8 °F 65% 29.87 in 10.0 mi South 17.3 mph - N/A   Scattered Clouds
5:15 PM 35.6 °F 28.0 °F 24.8 °F 65% 29.88 in 10.0 mi South 10.4 mph - N/A   Partly Cloudy
5:35 PM 35.6 °F 26.6 °F 26.6 °F 70% 29.88 in 10.0 mi SSW 13.8 mph - N/A   Scattered Clouds
5:55 PM 33.8 °F 23.9 °F 26.6 °F 75% 29.89 in 10.0 mi West 15.0 mph 20.7 mph N/A   Scattered Clouds
6:15 PM 32.0 °F 24.8 °F 28.4 °F 87% 29.89 in 10.0 mi WSW 8.1 mph - N/A   Partly Cloudy
6:35 PM 32.0 °F 20.8 °F 23.0 °F 69% 29.89 in 10.0 mi WSW 17.3 mph 23.0 mph N/A   Clear
6:55 PM 32.0 °F 22.1 °F 21.2 °F 64% 29.89 in 10.0 mi WSW 13.8 mph - N/A   Clear
7:15 PM 32.0 °F 23.0 °F 19.4 °F 60% 29.89 in 10.0 mi SW 11.5 mph - N/A   Clear
7:35 PM 32.0 °F 24.8 °F 19.4 °F 60% 29.89 in 10.0 mi WSW 8.1 mph 16.1 mph N/A   Clear
7:55 PM 32.0 °F 27.5 °F 19.4 °F 60% 29.89 in 10.0 mi WSW 4.6 mph - N/A   Partly Cloudy
8:15 PM 32.0 °F - 19.4 °F 60% 29.90 in 10.0 mi Calm Calm - N/A   Mostly Cloudy
8:35 PM 32.0 °F 26.4 °F 19.4 °F 60% 29.90 in 10.0 mi SW 5.8 mph - N/A   Mostly Cloudy
8:55 PM 32.0 °F 28.7 °F 19.4 °F 60% 29.90 in 10.0 mi South 3.5 mph - N/A   Mostly Cloudy
9:15 PM 32.0 °F 24.8 °F 19.4 °F 60% 29.90 in 10.0 mi SSW 8.1 mph 16.1 mph N/A   Overcast
9:35 PM 32.0 °F 24.8 °F 19.4 °F 60% 29.89 in 10.0 mi SW 8.1 mph - N/A   Mostly Cloudy
9:55 PM 32.0 °F 26.4 °F 19.4 °F 60% 29.89 in 10.0 mi SW 5.8 mph - N/A   Overcast
10:15 PM 32.0 °F 22.1 °F 19.4 °F 60% 29.90 in 10.0 mi WSW 13.8 mph - N/A   Mostly Cloudy
10:35 PM 32.0 °F 23.6 °F 19.4 °F 60% 29.90 in 10.0 mi SW 10.4 mph 16.1 mph N/A   Overcast
10:55 PM 32.0 °F 23.0 °F 19.4 °F 60% 29.90 in 10.0 mi SSW 11.5 mph 16.1 mph N/A   Mostly Cloudy
11:15 PM 32.0 °F 24.8 °F 19.4 °F 60% 29.90 in 9.0 mi SSW 8.1 mph - N/A   Overcast
11:35 PM 32.0 °F 26.4 °F 19.4 °F 60% 29.89 in 10.0 mi SW 5.8 mph - N/A   Overcast
11:55 PM 32.0 °F - 19.4 °F 60% 29.89 in 10.0 mi Calm Calm - N/A   Overcast